COSMOS 1275 DEB, 42133

Orbit data source: Space-Track

COSMOS 1275 DEB, 42133 is space debris in LEO originally from a launch on Thu, 04 Jun 1981 UTC launched from the Plesetsk Missile And Space Complex (PKMTR). Debris objects in space refer to the collection of defunct objects orbiting the Earth. Examples of debris include non-operational satellites, rocket bodies, and fragments generated from explosions, collisions, or faulty payload assembly.

Loading next visibility...
Identifier
42133, 1981-053QV
Orbit
LEO
Country
Flag of CISCIS
Related business
Manufacturer
Unknown
Mission
Spacecraft
Bus & Motor
Unknown
Mass
Unknown
Launch date (UTC)
1981-06-04 (45 years ago)
Launch vehicle
Unknown
Launch site
Plesetsk Missile And Space Complex (PKMTR)
Object type
Payload
Rocket body
Debris
Shape & HBR
Unknown shape, 0.1 m
Radar Cross Section
Small (<0.1 m²)

Expand to show TLE details & history
Last TLE update: 1 week ago

TLE from 1 week ago
0 COSMOS 1275 DEB
1 42133U 81053QV  26139.40895022  .00000725  00000-0  86613-3 0  9992
2 42133  83.1310  30.6994 0163068 259.6904  98.5826 13.60624263116369
Epoch: 2026-05-19T09:48Z
TLE epoch observation values (Epoch: 2026-05-19T09:48:53.299Z)
Latitude
-0.00003°
Longitude
6.39404°
Altitude
1,056.268 km
Speed
7.314 km/s
True Right ascension
02h 02m 47s
True Declination
0° 00' 00"
Sunlit
Object was in daylight at epoch
Visualization orbit readout
Latitude
Unknown
Longitude
Unknown
Altitude
Unknown
Speed
Unknown
Apparent Right ascension
Unknown
Apparent Declination
Unknown
Sunlit
N/A
Visualization observer readout
Local Sidereal Time
20:11:54
Azimuth
Unknown
Elevation
Unknown
Doppler factor
Unknown
Orbital elements
Apogee altitude
1,151.397 km
Perigee altitude
909.772 km
Semi-major axis
7,408.722 km
Eccentricity
0.01631
Inclination
83.131°
RAAN
30.6994°
Arg. of periapsis
259.6904°
True anomaly
100.42438°
Mean anomaly
98.5826°
Eccentric anomaly
99.50409°
Mean motion
3.40352 °/min
Orbital period
105.77 mins
BSTAR
0.00086613
Loading maneuver chart data...
Computing Atmospheric mass density...
Loading historical data...
Loading historical data...
Loading historical data...
Loading historical data...
Loading historical data...
Loading historical data...
Loading historical data...

Documentation

Showing up to 5 results
|